TimeWET,TemperatureF,Dew PointF,Humidity,Sea Level PressureIn,VisibilityMPH,Wind Direction,Wind SpeedMPH,Gust SpeedMPH,PrecipitationIn,Events,Conditions,WindDirDegrees,DateUTC
12:00 AM,64,40,30,29.98,3,SSE,2.3,,,,Scattered Clouds,150,2011-11-13 00:00:00
12:00 AM,64.4,41.0,42,30.01,3.7,Variable,2.3,-,N/A,,Mostly Cloudy,0,2011-11-13 00:00:00
12:30 AM,64.4,39.2,40,30.01,3.7,Variable,2.3,-,N/A,,Mostly Cloudy,0,2011-11-13 00:30:00
1:00 AM,64.4,41.0,42,29.98,3.7,Variable,1.2,-,N/A,,Unknown,0,2011-11-13 01:00:00
1:30 AM,62.6,41.0,45,30.01,3.7,ESE,4.6,-,N/A,,Unknown,120,2011-11-13 01:30:00
2:00 AM,62.6,39.2,42,30.01,4.3,SE,3.5,-,N/A,,Unknown,140,2011-11-13 02:00:00
2:30 AM,62.6,42.8,48,29.98,4.3,East,5.8,-,N/A,,Unknown,100,2011-11-13 02:30:00
3:00 AM,62,40,32,29.95,4,ESE,5.8,,,,Clear,110,2011-11-13 03:00:00
3:00 AM,62.6,41.0,45,29.98,4.3,ESE,6.9,-,N/A,,Unknown,110,2011-11-13 03:00:00
3:30 AM,64.4,37.4,37,29.98,4.3,Variable,2.3,-,N/A,,Unknown,0,2011-11-13 03:30:00
4:00 AM,64.4,35.6,34,29.98,5.0,East,5.8,-,N/A,,Unknown,90,2011-11-13 04:00:00
4:30 AM,64.4,33.8,32,29.95,5.0,SE,6.9,-,N/A,,Unknown,140,2011-11-13 04:30:00
5:00 AM,66.2,33.8,30,29.95,5.0,SE,5.8,-,N/A,,Unknown,130,2011-11-13 05:00:00
5:30 AM,64.4,37.4,37,29.95,5.6,ESE,5.8,-,N/A,,Unknown,110,2011-11-13 05:30:00
6:00 AM,66.2,33.8,30,29.98,5.0,ESE,6.9,-,N/A,,Unknown,120,2011-11-13 06:00:00
6:30 AM,66.2,32.0,28,29.98,5.6,SSE,8.1,-,N/A,,Unknown,150,2011-11-13 06:30:00
7:00 AM,68.0,30.2,24,29.98,5.6,SSE,8.1,-,N/A,,Mostly Cloudy,150,2011-11-13 07:00:00
7:30 AM,69.8,30.2,23,30.01,5.6,SE,9.2,-,N/A,,Mostly Cloudy,140,2011-11-13 07:30:00
8:00 AM,66.2,37.4,35,30.01,5.0,WSW,3.5,-,N/A,,Mostly Cloudy,240,2011-11-13 08:00:00
8:30 AM,64.4,39.2,40,30.01,4.3,Calm,Calm,-,N/A,,Mostly Cloudy,0,2011-11-13 08:30:00
9:00 AM,66.2,41.0,40,30.01,-9999.0,NNE,3.5,-,N/A,,Mostly Cloudy,30,2011-11-13 09:00:00
9:30 AM,68.0,42.8,40,30.01,3.1,ENE,4.6,-,N/A,,Mostly Cloudy,60,2011-11-13 09:30:00
10:00 AM,69.8,44.6,40,30.04,3.1,ENE,6.9,-,N/A,,Mostly Cloudy,70,2011-11-13 10:00:00
10:30 AM,73.4,41.0,31,30.04,4.3,East,6.9,-,N/A,,Mostly Cloudy,80,2011-11-13 10:30:00
11:00 AM,75.2,41.0,29,30.04,3.7,Variable,2.3,-,N/A,,Mostly Cloudy,0,2011-11-13 11:00:00
11:30 AM,73.4,46.4,38,30.04,-9999.0,Variable,2.3,-,N/A,,Mostly Cloudy,0,2011-11-13 11:30:00
12:00 PM,75,39,17,29.95,3,South,2.3,,,,Partly Cloudy,180,2011-11-13 12:00:00
12:00 PM,75.2,39.2,27,30.01,3.1,Variable,2.3,-,N/A,,Mostly Cloudy,0,2011-11-13 12:00:00
12:30 PM,77.0,39.2,26,30.01,3.1,Variable,2.3,-,N/A,,Mostly Cloudy,0,2011-11-13 12:30:00
1:00 PM,78.8,37.4,23,29.98,3.7,SSE,3.5,-,N/A,,Mostly Cloudy,160,2011-11-13 13:00:00
1:30 PM,80.6,41.0,24,29.98,3.7,SE,3.5,-,N/A,,Mostly Cloudy,130,2011-11-13 13:30:00
2:00 PM,80.6,44.6,28,29.95,3.7,NNE,3.5,-,N/A,,Mostly Cloudy,30,2011-11-13 14:00:00
2:30 PM,80.6,44.6,28,29.95,3.1,Variable,2.3,-,N/A,,Mostly Cloudy,0,2011-11-13 14:30:00
3:00 PM,83,39,12,29.85,4,East,5.8,,,,Scattered Clouds,80,2011-11-13 15:00:00
3:00 PM,82.4,39.2,21,29.95,3.7,East,5.8,-,N/A,,Mostly Cloudy,80,2011-11-13 15:00:00
3:30 PM,84.2,33.8,16,29.92,4.3,East,9.2,-,N/A,,Mostly Cloudy,90,2011-11-13 15:30:00
4:00 PM,86.0,30.2,13,29.92,4.3,East,6.9,-,N/A,,Scattered Clouds,100,2011-11-13 16:00:00
4:30 PM,86.0,32.0,14,29.92,4.3,NE,4.6,-,N/A,,Scattered Clouds,50,2011-11-13 16:30:00
5:00 PM,84.2,39.2,20,29.95,3.1,NNW,4.6,-,N/A,,Scattered Clouds,330,2011-11-13 17:00:00
5:30 PM,73.4,50.0,44,29.95,3.1,West,6.9,-,N/A,,Scattered Clouds,270,2011-11-13 17:30:00
6:00 PM,72,48,31,29.90,3,SW,8.1,,,,Partly Cloudy,230,2011-11-13 18:00:00
6:00 PM,71.6,48.2,43,29.95,3.1,SW,6.9,-,N/A,,Scattered Clouds,230,2011-11-13 18:00:00
6:30 PM,71.6,42.8,35,29.95,4.3,SW,11.5,-,N/A,,Scattered Clouds,230,2011-11-13 18:30:00
7:00 PM,69.8,41.0,35,29.98,3.7,West,9.2,-,N/A,,Scattered Clouds,260,2011-11-13 19:00:00
7:30 PM,66.2,39.2,37,29.98,3.7,WSW,6.9,-,N/A,,Scattered Clouds,240,2011-11-13 19:30:00
8:00 PM,64.4,41.0,42,30.01,3.7,WSW,8.1,-,N/A,,Scattered Clouds,240,2011-11-13 20:00:00
8:30 PM,62.6,41.0,45,29.98,3.1,Variable,1.2,-,N/A,,Scattered Clouds,0,2011-11-13 20:30:00
9:00 PM,64,42,33,29.95,3,ESE,6.9,,,,Partly Cloudy,120,2011-11-13 21:00:00
9:00 PM,64.4,42.8,45,29.98,3.1,ESE,5.8,-,N/A,,Scattered Clouds,120,2011-11-13 21:00:00
9:30 PM,62.6,41.0,45,29.98,3.1,East,4.6,-,N/A,,Scattered Clouds,80,2011-11-13 21:30:00
10:00 PM,60.8,41.0,48,29.95,3.1,East,6.9,-,N/A,,Scattered Clouds,90,2011-11-13 22:00:00
10:30 PM,64.4,39.2,40,29.95,3.7,SE,6.9,-,N/A,,Scattered Clouds,140,2011-11-13 22:30:00
11:00 PM,60.8,37.4,42,29.95,3.1,ENE,4.6,-,N/A,,Scattered Clouds,60,2011-11-13 23:00:00
11:30 PM,55.4,42.8,63,29.95,3.1,West,5.8,-,N/A,,Scattered Clouds,260,2011-11-13 23:30:00